Location: Bay Shore Mobile Home Park
(38.5762°N, 75.0841°W)
Time: 08:16:28
(UTC+00:00)

Cosmos 1869 - Pass Details

Date: 15 November 2025
Orbit: 453 x 482 km, 82.5° (Epoch: 04 December)

Event Time Altitude Azimuth Distance (km) Brightness Sun altitude
Rises 22:47:44 0° 187° (S) 2,498 7.0 -12.1°
Reaches altitude 10° 22:49:49 10° 188° (S) 1,620 6.0 -12.5°
Maximum altitude 22:53:22 85° 278° (W) 472 3.0 -13.1°
Drops below altitude 10° 22:56:53 10° 6° (N) 1,615 5.5 -13.8°
Sets 22:58:58 0° 7° (N) 2,490 6.5 -14.2°
